Вернуться в каталог

STARLINK-35783

АктивенСвязьVLEO
NORAD 66286·PAYLOAD·🇺🇸 United States

Запущен Oct 31, 2025 с Vandenberg Space Force Base

Loading…

Ближайшие Пролёты (ближайшие 24 часа)

TLE

СвежийSource: CelesTrak SupGP

Эпоха: Sep 14, 2026, 14:20 UTC

1 66286C 25247X   26257.59770833 -.00077564  00000+0 -22920-2 0  2576
2 66286  53.1595  31.5467 0001196  89.0067 163.4890 15.34424432    15

Отслеживайте STARLINK-35783 в реальном времени с AllMySat

Download on the App Store